Regional Weather Roundup
Issued by NWS

Home | Current Version | Previous Version | Graphics & Text | Print | Product List | Glossary On
Versions: 1 2 3 4 5 6 7 8 9 10 11 12 13 14 15 16 17 18 19 20 21 22 23 24 25 26 27 28 29 30 31 32 33 34 35 36 37 38 39 40 41 42 43 44 45 46 47 48 49 50
000
ASUS43 KBIS 310702
RWRND

NORTH DAKOTA REGIONAL WEATHER ROUNDUP
NATIONAL WEATHER SERVICE BISMARCK ND
200 AM CDT TUE MAY 31 2016

NOTE: "FAIR" INDICATES FEW OR NO CLOUDS BELOW 12,000 FEET WITH NO
SIGNIFICANT WEATHER AND/OR OBSTRUCTIONS TO VISIBILITY.


NDZ001>003-009>011-017-310800-
NORTHWEST NORTH DAKOTA

CITY           SKY/WX    TMP DP  RH WIND       PRES   REMARKS
WILLISTON      LGT RAIN  51  48  89 W9        29.86S
MINOT          LGT RAIN  57  54  89 NW9       29.78F
$$

NDZ018>021-031>035-040>046-310800-
SOUTHWEST NORTH DAKOTA

CITY           SKY/WX    TMP DP  RH WIND       PRES   REMARKS
BISMARCK       CLOUDY    56  55  97 W10       29.81F
DICKINSON      CLEAR     44  41  89 NW10      29.87F
GARRISON         N/A     54  53  97 NW5       29.80F
HETTINGER ARPT CLEAR     43  41  93 W9        29.94F
$$

NDZ004>008-012>016-024-026-027-054-310800-
NORTHEAST NORTH DAKOTA

CITY           SKY/WX    TMP DP  RH WIND       PRES   REMARKS
GRAND FORKS    CLOUDY    60  57  89 E16       29.72F
DEVILS LAKE    LGT RAIN  58  56  93 E13       29.74F
$$

NDZ022-023-025-028>030-036>039-047>053-310800-
SOUTHEAST NORTH DAKOTA

CITY           SKY/WX    TMP DP  RH WIND       PRES   REMARKS
FARGO          CLOUDY    61  59  93 SE9       29.71F
JAMESTOWN      PTCLDY    55  55 100 E5        29.71F
$$





USA.gov is the U.S. government's official web portal to all federal, state and local government web resources and services.